STARLINK-3083, 49158

Orbit data source: Space-Track

STARLINK-3083, 49158 is a payload satellite owned by SpaceX/Seattle (US) in LEO that was launched on Tue, 14 Sep 2021 UTC via an FALCON 9 launch vehicle from the Air Force Western Test Range (AFWTR). Payload-class satellites include a variety of spacecraft equipped with specific instruments for various scientific and technological missions. These include communications satellites like Starlink; space stations such as the ISS; scientific satellites like the Hubble; Earth observation satellites from companies like Planet Labs, Umbra, and HawkEye 360; GPS; miniature CubeSats for education and research; and military/defense satellites.

Not visible in the next 10 days
Identifier
49158, 2021-082AE
Orbit
LEO
Country
Flag of USUS
Related business
Manufacturer
SpaceX/Seattle
Mission
Partially operational Commercial Communications
Bus & Motor
STARLINK, Unknown motor
Mass
297 kg wet, ~275 kg dry
Launch date (UTC)
2021-09-14 (4 years ago)
Launch vehicle
FALCON 9
Launch site
Air Force Western Test Range (AFWTR)
Object type
Payload
Rocket body
Debris
Shape & HBR
Box + 1 Pan, 10.1 m
Radar Cross Section
13.562 m², Large (>1 m²)

Expand to show TLE details & history
Last TLE update: 15 hours ago

TLE from 15 hours ago
0 STARLINK-3083
1 49158U 21082AE  26071.63363035  .00059610  00000-0  60646-3 0  9991
2 49158  69.9692 165.3607 0004985 240.8319 119.2376 15.64839480250511
Epoch: 2026-03-12T15:12Z
TLE epoch observation values (Epoch: 2026-03-12T15:12:25.662Z)
Latitude
0.00004°
Longitude
126.97308°
Altitude
377.839 km
Speed
7.682 km/s
True Right ascension
11h 01m 26s
True Declination
0° 00' 00"
Sunlit
Object was in full shadow at epoch
Visualization orbit readout
Latitude
Unknown
Longitude
Unknown
Altitude
Unknown
Speed
Unknown
Apparent Right ascension
Unknown
Apparent Declination
Unknown
Sunlit
N/A
Visualization observer readout
Local Sidereal Time
10:13:01
Azimuth
Unknown
Elevation
Unknown
Doppler factor
Unknown
Orbital elements
Apogee altitude
374.956 km
Perigee altitude
368.227 km
Semi-major axis
6,749.729 km
Eccentricity
0.0005
Inclination
69.9692°
RAAN
165.3607°
Arg. of periapsis
240.8319°
True anomaly
119.28743°
Mean anomaly
119.2376°
Eccentric anomaly
119.26252°
Mean motion
3.91394 °/min
Orbital period
91.98 mins
BSTAR
0.00060646
Loading maneuver chart data...
Computing Atmospheric mass density...

Documentation

Showing up to 5 results
|